Regional Weather Roundup
Issued by NWS Kansas City/Pleasant Hill, MO

Home | Current Version | Previous Version | Text Only | Print | Product List | Glossary On
Versions: 1 2 3 4 5 6 7 8 9 10 11 12 13 14 15 16 17 18 19 20 21 22 23 24 25 26 27 28 29 30 31 32 33 34 35 36 37 38 39 40 41 42 43 44 45 46 47 48 49 50
000
ASUS43 KEAX 291010
RWREAX

WEATHER ROUNDUP FOR EASTERN KANSAS AND NORTHWEST MISSOURI
NATIONAL WEATHER SERVICE KANSAS CITY/PLEASANT HILL MO
500 AM CDT SAT AUG 29 2015

KSZ040-057-103>105-MOZ028-029-037-043-291100-
...KANSAS CITY METROPOLITAN AREA...

CITY           SKY/WX    TMP DP  RH WIND       PRES   REMARKS
K.C. INTL      CLOUDY    70  68  93 W6        29.94R
K.C. DOWNTOWN  CLOUDY    72  69  90 W6        29.93R
LEES SUMMIT    CLOUDY    71  68  90 SW7       29.95R
OLATHE - IXD   CLOUDY    70  68  93 W7        29.96R
OLATHE - OJC   CLOUDY    69  68  96 SW3       29.95R
LAWRENCE       MOCLDY    67  65  93 NW6       29.96R

$$

MOZ001>008-011>017-020>025-030>033-038>040-044>046-053-054-291100-
...NORTHERN AND CENTRAL MISSOURI...

CITY           SKY/WX    TMP DP  RH WIND       PRES   REMARKS
ST. JOSEPH     CLOUDY    67  65  93 N6        29.95S
MOSBY          CLOUDY    70  70 100 CALM      29.92S
WARRENSBURG    CLEAR     68  63  83 S8        29.94S
WHITEMAN AFB   CLEAR     69  64  83 SW12      29.93S
CLINTON          N/A     72  64  78 S6        29.96S
SEDALIA        CLEAR     70  62  76 S10       29.96S
WARSAW         NOT AVBL
CHILLICOTHE      N/A     70  68  93 CALM      29.94S
KIRKSVILLE     CLOUDY    68  64  87 S5        29.96S

$$

MOZ041-047>049-056>058-063>065-088>090-097-291100-
...EASTERN AND SOUTHERN MISSOURI...

CITY           SKY/WX    TMP DP  RH WIND       PRES   REMARKS
ST. LOUIS INTL CLOUDY    73  62  68 S6        30.01F
SPIRIT OF STL  MOCLDY    67  64  90 CALM      29.99F
COLUMBIA       CLOUDY    68  63  84 SE5       29.97S
JEFFERSON CITY MOCLDY    70  62  76 E7        29.97S
ROLLA          CLOUDY    69  61  75 S10       29.99S
OSAGE BEACH    CLOUDY    70  59  68 SE5       29.98F
SPRINGFIELD    CLOUDY    71  60  68 S12       29.99S
BRANSON        CLOUDY    66  63  88 S3        30.02F
JOPLIN         CLOUDY    71  63  75 S8        29.97F
WEST PLAINS    CLOUDY    69  60  73 SW3       30.05S

$$

IAZ060-094-KSZ022-034>040-054-083-096-NEZ052-066-093-291100-
...KANSAS...SOUTHEAST NEBRASKA AND IOWA...

CITY           SKY/WX    TMP DP  RH WIND       PRES   REMARKS
TOPEKA         CLEAR     64  62  93 W5        29.97R
MANHATTAN      CLOUDY    67  63  87 CALM      29.99R
EMPORIA        CLEAR     65  63  93 CALM      29.98R
CHANUTE        PTCLDY    69  67  93 SW3       29.95F
WICHITA        CLEAR     70  64  81 N8        29.99R
OMAHA          CLOUDY    62  61  96 N10       30.00R
LINCOLN        CLOUDY    62  61  96 N8        30.02R FOG
FALLS CITY     CLOUDY    65  63  93 N9        29.96S
LAMONI         CLOUDY    69  68  96 NW6       29.94S FOG
DES MOINES     CLOUDY    65  62  90 NW7       29.95R

$$




USA.gov is the U.S. government's official web portal to all federal, state and local government web resources and services.